Regional Weather Roundup
Issued by NWS Charleston, SC

Current Version | Previous Version | Text Only | Print | Product List | Glossary Off
Versions: 1 2 3 4 5 6 7 8 9 10 11 12 13 14 15 16 17 18 19 20 21 22 23 24 25 26 27 28 29 30 31 32 33 34 35 36 37 38 39 40 41 42 43 44 45 46 47 48 49 50

000
ASUS42 KCHS 020226
RWRCHS

REGIONAL WEATHER ROUNDUP
NATIONAL WEATHER SERVICE CHARLESTON SC
1000 PM EDT WED APR 01 2015

NOTE: "FAIR" INDICATES FEW OR NO CLOUDS BELOW 12,000 FEET WITH NO
SIGNIFICANT WEATHER AND/OR OBSTRUCTIONS TO VISIBILITY.

NOT ALL STATIONS ARE QUALITY CONTROLLED BY THE NATIONAL
WEATHER SERVICE. USE DATA WITH CAUTION...ESPECIALLY
DEWPOINT OBSERVATIONS.

SCZ027-030-031-034>040-042>050-020300-
...SOUTHEAST SOUTH CAROLINA...

CITY           SKY/WX    TMP DP  RH WIND       PRES   REMARKS
N CHARLESTON   PTCLDY    58  53  84 E8        30.20R
WATERFRONT PRK   N/A     61 N/A N/A E15         N/A
MOUNT PLEASANT FAIR      57  54  88 E5        30.21R
PINOPOLIS        N/A     59  50  72 SE6       30.10R
MONCKS CORNER  FAIR      57  50  77 CALM      30.21R
SUMMERVILLE    FAIR      57  54  88 CALM      30.21R
BEAUFORT MCAS  PTCLDY    60  55  83 E7        30.19R
BEAUFORT ARPT  FAIR      61  57  88 E9G17     30.19R
HILTON HEAD IS CLEAR     63  59  88 NE9G16    30.20R
WALTERBORO     CLEAR     55  52  88 SE5       30.21R
ALLENDALE      FAIR      61  54  77 SE8       30.17R

...SOUTHERN MIDLANDS AND PEE DEE...

CITY           SKY/WX    TMP DP  RH WIND       PRES   REMARKS
GEORGETOWN     NOT AVBL
KINGSTREE      NOT AVBL
ORANGEBURG     PTCLDY    62  49  62 SE8       30.18R
BARNWELL       FAIR      64  48  55 SE10G22   30.18R
AIKEN          FAIR      63  43  48 SE8       30.18R HAZE
MANNING        FAIR      55  43  62 SE3       30.21R
COLUMBIA       PTCLDY    65  45  48 SE12      30.15R
SUMTER         CLEAR     61  48  61 SE12      30.17R
FLORENCE       CLEAR     58  45  62 SE10      30.21R
MYRTLE BEACH   CLEAR     57  48  72 E12       30.25R
N MYRTLE BEACH CLEAR     56  48  74 E9        30.24R

$$

GAZ063-065-086>088-099>101-113>116-118-119-134>141-150-020300-
...SOUTHEAST GEORGIA...

CITY           SKY/WX    TMP DP  RH WIND       PRES   REMARKS
SAVANNAH ARPT  PTCLDY    60  56  86 E9        30.17R
HUNTER AAF     PTCLDY    61  59  94 E9        30.15R
FORT STEWART   CLOUDY    63  58  84 E10       30.15R
STATESBORO     CLEAR     61  56  85 SE6       30.18R
SYLVANIA       CLEAR     60  56  88 SE7       30.18R
CLAXTON        FAIR      61  59  94 E7        30.17R

...CSRA...CENTRAL AND FAR SOUTHEAST GEORGIA...

CITY           SKY/WX    TMP DP  RH WIND       PRES   REMARKS
THOMSON        PTCLDY    71  53  53 CALM      30.17R
AUGUSTA-BUSH   PTCLDY    67  56  67 SE10      30.13R
AUGUSTA-DANIEL PTCLDY    69  47  45 SE9       30.14R
SWAINSBORO     MOCLDY    68  52  56 SE13G22   30.15R
VIDALIA        CLEAR     66  59  77 SE8       30.14R
EASTMAN        FAIR      62  62 100 CALM      30.13R
HAZLEHURST     FAIR      68  59  73 SE9       30.11R
ALMA           CLEAR     67  58  72 SE7       30.12R
WAYCROSS       CLEAR     69  59  70 SE10      30.14R
JESUP          FAIR      64  61  88 E7        30.16R
BAXLEY         FAIR      68  57  68 SE9       30.13R
BRUNSWICK      CLEAR     59  57  94 NE3       30.17R
SAINT SIMONS   CLEAR     62  59  90 NE3       30.15R

$$

SCZ027-028-034-036>038-045-046-048>050-GAZ119-141-020300-
...LAKE AND SUPPLEMENTAL COASTAL OBSERVATIONS...

STATION/POSITION TIME  TEMP    WIND        PRES    WAVE   SWELL
                       AIR SEA DIR/SP/G            HT/PER HT/PER/DIR
                 (UTC) (F)     (DEG/KT/KT) (MB)    (FT/S) (FT/S/D)
UPR LAKE MARION  NOT AVBL
WINYAH BAY       0100   58      80/  9     1021.0S
LAKE MURRAY      0100   67      90/  7/  8 1019.3R
ACE BASIN NERRS  NOT AVBL
FORT PULASKI     0200   62 62   50/ 14/ 18 1022.1R
SAPELO ISLAND    0200   62      40/  4     1021.0R

$$

ANZ835-935-AMZ111-154-330-350-352-354-370-450-454-472-020300-
...C-MAN AND BUOY OBSERVATIONS...

STATION/POSITION TIME  TEMP    WIND        PRES    WAVE   SWELL
                       AIR SEA DIR/SP/G            HT/PER HT/PER/DIR
                 (UTC) (F)     (DEG/KT/KT) (MB)    (FT/S) (FT/S/D)
BUOY 41004       0150   65 68   70/ 19/ 23 1021.6R   7/ 8   2/13
BUOY 41008       0150   64 62   80/ 10/ 12 1020.9R   2/ 3
FOLLY BEACH CMAN 0200   60      80/ 13/ 15 1022.5R
CAPERS NEARSHORE NOT AVBL
FRIPP NEARSHORE  0100   61      70/ 14/ 17 1020.4R


STATION/POSITION TIME  TEMP    WIND        PRES    WAVE   SWELL
                       AIR SEA DIR/SP/G            HT/PER HT/PER/DIR
                 (UTC) (F)     (DEG/KT/KT) (MB)    (FT/S) (FT/S/D)
5E ST. MARYS GA  0121      63                N/A     1/11
FRYING PAN BUOY  0150   60 63   80/ 19/ 23 1023.9R   6/ 7
BUOY 41025       NOT AVBL
CAPE LOOKOUT NC  0200   54      40/ 20/ 22 1025.4R
BUOY 41002       0150   65 69   30/ 19/ 23 1022.1R   7/ 8
BUOY 41010       0120   75 76  270/  6/  8 1019.7R
ST AUGUSTINE FL  0200   65 63  160/  4/  4 1021.3R


$$


USA.gov is the U.S. government's official web portal to all federal, state and local government web resources and services.